Dewpoint
46 45 46 49 49 49 49 49 48 48 49 48 48 49 52 51 51 52 48 49 50 51 50 51 52 54 56 54 53 48 43 38 37 38 38 37 33 32 33 37 35 40 50 54 60
45 48 47 45 46 49 48 47 46 47 47 47 46 48 49 52 49 46 49 50 50 50 53 50 50 52 52 51 52 47 41 40 41 40 37 38 35 33 33 37 41 46 52 59 59
46 49 48 47 47 47 46 46 46 45 45 44 45 46 48 51 43 39 41 48 53 52 51 52 51 50 49 50 50 47 41 41 42 42 39 37 35 35 32 35 40 41 54 57 58
47 48 47 47 47 47 47 46 44 43 44 44 43 45 47 47 29 39 51 50 48 50 50 51 51 47 47 46 49 44 45 43 42 43 42 40 38 34 33 33 37 53 56 56 56
47 46 44 45 44 43 43 43 43 44 43 44 44 43 44 40 39 41 44 43 42 47 49 50 49 47 43 45 47 46 44 45 44 44 43 43 40 37 35 36 49 55 56 55 55
46 44 45 44 43 42 42 42 41 41 41 41 41 43 41 34 39 40 41 41 42 45 51 51 47 48 46 45 45 45 45 43 44 44 43 41 39 37 35 47 52 55 55 55 55
45 45 45 43 43 42 42 42 42 42 43 43 42 41 39 35 38 38 38 37 40 39 38 50 49 47 48 43 45 43 43 44 42 42 43 40 39 36 35 48 50 53 54 54 54
44 44 43 42 41 43 42 42 42 43 43 44 43 41 36 39 39 38 37 37 39 38 37 39 49 47 46 46 43 41 41 38 41 41 41 40 36 38 36 46 48 49 49 51 50
42 43 43 42 42 42 42 42 43 43 44 44 42 39 32 37 37 39 38 36 37 37 38 39 48 44 44 42 39 40 34 36 37 40 40 39 37 38 37 43 45 47 48 47 46
44 42 42 42 43 43 42 43 41 40 38 38 40 35 36 32 36 37 38 39 37 36 33 39 44 40 39 37 30 35 33 35 35 38 39 37 37 36 37 39 41 46 46 46 45
42 42 43 44 44 43 43 40 31 31 35 30 29 33 32 36 37 35 33 32 35 38 30 38 36 32 34 38 36 36 35 34 36 37 38 38 37 37 37 36 37 43 45 45 45
43 44 45 45 45 43 40 36 37 39 30 32 33 34 34 35 29 28 31 28 33 32 34 34 32 32 34 37 37 35 34 33 33 36 37 37 37 37 36 35 36 37 43 44 44
44 44 45 45 44 40 39 37 41 40 31 29 30 30 30 33 30 29 28 28 27 32 32 29 34 33 34 35 35 36 35 33 30 29 29 31 31 34 37 38 35 36 37 43 43
44 45 45 45 37 40 35 38 41 38 23 18 20 30 29 31 28 31 29 31 33 30 32 30 32 34 32 32 37 34 37 35 30 28 28 29 25 28 31 35 37 35 34 38 41
45 44 44 44 41 38 37 41 41 34 1 10 18 33 23 29 27 31 33 33 30 32 29 26 29 31 33 31 35 34 37 36 33 29 26 23 26 26 26 31 34 37 34 33 39
44 44 43 42 41 40 41 39 30 12 2 16 20 20 21 26 32 35 32 35 35 30 31 28 33 30 34 37 36 36 36 35 35 32 26 23 26 24 22 29 33 35 37 34 34
44 44 43 43 37 41 38 25 12 8 15 17 19 20 22 26 28 31 30 30 27 23 23 29 29 35 32 35 38 37 33 25 24 24 23 25 22 25 23 21 29 33 33 35 34
44 42 38 40 41 40 26 15 3 9 16 20 21 22 22 25 26 30 28 24 31 29 25 22 21 31 35 33 32 32 32 25 18 20 22 24 23 23 24 25 24 22 24 27 33
43 38 38 36 40 35 23 8 12 16 21 21 23 22 20 22 26 28 24 25 31 31 24 25 20 31 33 33 35 31 29 27 22 20 20 22 20 20 20 20 24 25 24 23 26
39 35 35 36 39 28 17 18 17 20 23 25 21 23 20 23 22 23 27 31 28 32 30 28 24 30 31 32 32 33 34 27 25 18 15 17 17 18 16 16 16 17 19 24 31
34 27 33 36 32 23 17 19 21 24 24 24 23 23 23 23 22 24 27 31 33 32 32 31 28 27 30 29 29 30 30 29 26 22 14 13 15 18 14 12 13 13 15 19 29
29 17 28 31 20 19 20 21 25 24 25 24 26 26 24 23 23 24 25 29 35 35 30 32 28 25 26 27 27 25 28 25 22 23 18 16 11 15 13 15 16 15 16 18 28
28 26 29 28 17 19 23 23 24 24 24 27 25 24 27 24 22 23 27 31 35 33 32 33 26 20 22 22 27 23 28 24 22 21 18 14 11 13 15 16 17 17 20 26 29
26 20 23 25 29 25 24 21 23 26 26 26 27 27 26 24 25 24 27 31 33 35 35 33 28 23 17 19 24 24 25 25 23 18 18 17 12 16 14 15 17 19 25 29 31
27 24 27 20 21 25 25 24 23 21 26 26 25 24 25 23 22 24 28 28 29 33 34 31 23 21 23 21 20 25 23 23 23 21 17 17 15 18 16 14 16 19 27 29 29
24 25 27 26 25 23 23 22 23 22 24 22 24 25 26 25 26 23 26 27 27 30 31 32 24 22 21 22 19 20 26 27 25 20 19 19 18 19 16 16 17 18 27 28 29
33 32 30 21 22 22 21 23 22 23 20 26 24 26 25 27 26 27 29 30 31 30 29 29 27 20 18 21 19 18 23 22 19 20 23 21 21 17 16 16 16 17 22 28 29
Wind_Speed
20 18 18 18 17 17 17 17 18 19 19 19 20 22 20 19 20 15 20 13 9 19 14 7 5 10 6 9 8 5 7 17 13 13 3 4 6 3 2 16 5 5 11 12 25
18 19 18 20 21 19 17 19 19 19 20 19 20 20 22 20 19 23 20 23 23 20 12 13 12 12 7 9 9 14 18 14 7 5 3 6 3 6 7 13 4 3 7 29 27
20 20 19 19 19 18 19 19 19 20 21 21 21 19 19 17 14 12 15 17 20 23 16 10 6 10 12 9 11 13 25 12 8 4 6 4 5 4 7 17 13 23 28 30 27
21 19 20 20 21 22 22 22 22 22 22 22 22 20 19 8 11 2 9 25 19 12 18 13 13 12 13 18 13 14 25 16 12 2 0 3 10 7 12 5 10 28 36 35 30
21 20 20 20 21 24 25 25 24 24 24 22 21 20 13 13 21 25 30 24 22 9 24 20 21 21 26 25 14 19 5 26 10 9 8 9 12 8 9 4 17 23 31 32 29
20 21 20 20 22 24 25 26 26 27 26 25 23 19 14 32 2 15 15 13 13 10 18 23 8 16 11 11 25 12 20 11 21 14 9 9 11 3 1 11 18 29 27 26 28
22 21 21 22 23 24 26 27 29 29 29 27 23 18 17 25 19 26 25 15 13 13 10 14 20 15 9 17 16 10 15 19 13 13 11 4 14 11 3 14 20 22 22 23 20
22 21 21 22 24 25 27 29 32 33 32 28 24 17 20 4 14 23 26 23 16 18 18 20 16 16 11 6 3 21 6 13 21 16 8 10 24 12 11 18 18 18 17 19 20
22 22 21 24 25 26 28 32 34 32 27 20 13 11 13 4 11 16 17 23 19 12 8 16 14 14 11 16 12 12 21 24 2 25 10 20 17 17 15 19 20 18 18 19 17
20 21 23 24 25 27 30 27 26 19 8 1 3 3 8 9 4 3 2 9 13 9 9 11 12 16 19 26 32 14 25 20 23 12 24 21 13 4 17 19 22 21 19 19 20
22 23 24 25 25 26 18 9 9 6 5 7 16 13 18 2 10 9 6 2 4 8 20 21 20 30 37 37 31 20 21 13 20 12 16 26 21 15 11 17 19 21 22 21 21
22 22 23 24 24 24 5 4 9 8 18 10 21 19 23 14 11 27 4 3 5 19 15 11 34 43 22 25 29 29 18 23 6 17 17 17 21 18 18 18 24 26 22 23 18
22 21 22 23 21 4 8 3 9 2 6 11 4 6 6 8 9 14 14 16 14 15 20 29 20 18 24 24 30 34 21 24 20 10 3 6 11 14 15 16 16 19 21 22 28
22 21 20 19 5 7 6 6 11 2 4 8 5 5 2 7 8 9 17 8 8 12 17 19 22 18 29 33 26 25 24 14 18 21 17 10 11 20 25 18 21 23 22 24 24
20 19 17 15 5 6 9 12 7 1 5 13 6 2 18 6 13 6 12 3 15 8 11 23 13 22 20 38 28 9 23 18 16 11 11 7 7 7 9 27 29 26 24 23 25
20 19 18 4 3 7 13 8 3 4 4 9 11 23 16 8 3 5 5 7 4 6 14 17 9 11 18 12 22 12 18 14 4 9 16 17 16 8 14 23 18 17 22 25 24
21 21 9 0 8 13 7 4 3 4 7 11 22 24 23 9 8 4 2 4 7 8 15 15 19 4 23 16 14 12 21 15 11 11 6 16 13 16 9 13 19 28 27 26 27
20 12 5 1 11 6 5 4 5 3 8 13 15 25 6 10 5 9 4 5 8 4 5 17 20 15 12 13 8 12 13 6 7 10 8 8 15 10 17 17 14 12 15 18 20
11 6 3 8 11 3 5 6 2 3 8 12 22 6 5 6 7 8 3 5 6 8 6 3 16 8 14 9 16 8 8 3 8 3 6 6 4 9 13 11 12 19 13 18 20
6 5 4 13 6 5 6 3 3 5 10 5 5 5 10 14 15 15 2 3 4 9 9 3 2 6 6 9 5 9 11 6 4 6 4 0 4 11 7 8 3 10 17 19 17
3 4 3 15 4 9 4 5 7 11 10 3 5 8 8 11 20 10 14 5 10 4 4 3 0 6 11 4 13 7 8 3 6 3 6 6 3 3 7 9 8 13 11 17 20
3 3 7 8 7 2 5 8 8 9 6 4 6 6 7 19 7 6 11 7 12 2 4 5 1 11 7 3 2 4 10 7 11 5 3 3 3 1 5 8 9 11 7 7 14
5 3 5 3 5 6 7 6 5 7 11 6 5 8 10 8 7 6 11 13 14 7 2 5 2 6 7 4 4 5 4 8 10 5 3 4 4 3 5 8 8 6 5 3 9
3 5 5 6 2 2 7 5 11 10 7 8 5 6 14 7 6 7 10 9 14 8 8 4 2 5 3 6 8 8 7 10 8 7 13 9 7 2 9 8 7 8 7 5 9
5 2 1 7 5 10 4 3 11 10 5 7 4 13 15 6 10 9 8 13 6 13 6 4 3 3 3 4 6 9 12 15 20 14 16 10 10 5 4 5 5 5 5 8 12
3 4 4 5 6 7 6 4 9 11 4 8 11 19 15 7 6 17 19 11 4 11 7 4 3 1 6 7 8 9 12 8 6 11 6 8 10 8 2 3 4 6 4 7 11
2 1 1 5 4 2 2 6 12 14 8 9 16 17 10 7 19 23 19 18 18 10 6 4 3 2 3 3 10 6 21 18 7 6 12 13 12 7 3 0 3 2 2 6 12
Wind_Direction
340 336 334 333 331 327 333 329 330 331 327 324 323 320 322 316 311 301 264 243 228 252 244 314 195 199 224 207 191 165 204 221 215 200 227 151 200 142 113 141 158 183 164 162 148
333 334 332 335 332 335 337 331 327 323 321 319 316 315 315 319 308 279 253 253 255 250 209 208 205 186 213 203 203 189 212 212 200 183 210 312 282 186 154 152 155 120 103 137 146
334 342 342 334 331 327 325 323 321 319 316 314 311 313 314 323 311 266 254 248 251 234 223 198 177 200 221 189 207 209 222 214 221 220 24 291 310 314 181 190 180 177 151 153 156
331 338 337 338 339 334 327 320 315 311 307 306 306 311 312 316 263 274 135 347 332 258 206 197 193 195 215 203 199 228 228 210 225 172 292 355 324 327 185 232 196 158 159 160 168
335 339 336 335 334 331 325 319 314 308 303 301 300 305 308 260 246 287 305 340 325 320 202 195 200 197 214 207 204 223 249 216 221 264 280 309 293 281 272 343 141 144 158 168 172
336 336 333 333 331 328 322 317 311 305 301 297 295 291 284 267 306 291 316 339 331 338 218 198 220 221 237 222 209 212 225 211 217 230 267 267 286 205 351 134 140 152 170 173 173
337 335 334 333 330 327 323 317 310 305 298 292 288 284 261 255 298 290 286 284 282 298 309 248 220 186 178 227 239 232 210 209 207 206 230 252 263 230 193 149 160 168 172 174 173
334 333 334 333 327 324 323 318 311 301 293 289 280 269 265 255 277 264 267 274 275 268 260 271 263 233 238 319 234 219 232 199 220 210 206 173 252 221 174 163 177 177 170 176 180
335 333 332 330 327 325 324 319 307 300 301 294 273 239 274 275 250 254 247 252 268 278 259 253 248 232 216 225 222 188 219 208 206 205 172 181 232 219 181 177 184 189 182 181 175
331 334 331 327 326 326 326 319 306 311 328 66 135 141 252 243 249 260 227 235 234 251 263 225 217 211 210 213 216 204 206 206 204 192 195 205 221 187 182 184 193 189 194 190 180
334 330 327 324 324 328 334 331 357 333 56 253 260 266 279 294 297 258 226 318 277 208 214 203 212 210 210 211 212 213 212 192 213 187 177 213 212 208 188 195 204 197 192 198 191
328 327 327 327 323 330 8 14 354 282 308 275 260 252 260 251 272 261 192 232 246 232 207 232 213 218 218 208 211 214 213 201 168 189 194 201 217 211 210 210 204 207 199 194 189
333 330 329 331 326 5 330 279 331 323 288 306 248 256 251 170 235 277 194 201 217 241 219 218 225 213 212 215 221 220 213 189 192 161 88 160 241 216 232 219 209 211 204 188 188
331 329 328 337 9 330 309 309 337 148 332 287 314 288 290 239 264 222 197 175 189 231 199 239 250 249 207 216 212 204 209 198 187 168 194 187 238 222 223 222 218 213 204 196 192
341 336 337 338 280 306 288 323 316 92 336 326 308 263 317 240 302 331 169 137 195 175 193 211 229 219 230 216 210 204 188 194 190 187 158 179 206 234 211 219 217 217 205 200 194
336 335 336 9 305 258 312 319 57 38 305 320 322 321 326 305 257 282 159 71 40 206 269 251 298 213 210 229 202 164 172 182 146 151 208 186 191 236 204 221 218 209 209 202 197
337 337 348 250 315 313 329 30 16 47 327 325 324 325 317 307 315 205 153 151 195 190 229 220 225 249 185 230 213 170 152 173 197 184 182 176 191 227 225 217 210 209 213 204 200
335 342 331 54 326 336 35 40 34 269 290 303 313 312 297 4 300 324 183 198 226 219 325 171 205 187 176 209 178 192 178 158 178 160 146 145 215 230 238 238 223 228 220 213 202
341 350 6 322 331 23 41 48 286 286 328 319 318 314 309 322 334 325 217 207 181 180 180 257 214 152 173 160 155 160 195 130 113 81 113 184 266 288 248 258 230 234 234 239 223
348 355 301 333 342 48 59 330 281 243 312 320 300 347 321 332 338 335 329 333 215 194 186 236 119 149 133 138 74 171 149 149 75 146 133 188 253 224 207 225 275 253 244 225 212
33 349 277 347 36 43 49 298 292 286 311 267 288 298 297 328 320 318 359 32 0 171 138 174 110 171 143 206 169 132 147 96 107 98 152 147 234 229 274 293 281 286 287 234 209
40 343 321 1 42 57 335 305 292 294 329 297 277 266 311 320 304 315 334 322 352 15 188 203 268 160 134 63 89 103 158 143 174 173 82 99 30 356 320 304 310 300 280 252 206
356 299 331 31 60 350 325 306 280 315 322 347 302 342 324 310 328 333 326 317 359 0 183 184 358 95 101 72 52 128 149 119 110 125 188 118 126 36 19 57 45 57 358 5 164
14 338 331 35 49 5 330 322 332 311 299 342 284 347 337 321 311 303 311 331 323 349 357 146 97 65 131 174 139 158 167 183 172 172 161 191 158 21 34 50 55 44 41 76 146
27 341 293 323 342 340 323 303 328 347 310 322 329 352 339 310 322 347 340 323 343 4 26 29 54 103 18 104 117 161 163 175 188 189 192 213 198 205 34 36 34 53 61 117 137
21 354 352 291 311 348 355 334 318 327 272 311 331 325 319 296 338 324 320 328 344 336 345 347 73 40 51 100 155 151 161 238 169 164 158 179 239 217 103 113 34 62 85 139 152
358 20 17 301 338 3 3 328 309 322 293 272 320 322 328 346 314 287 270 268 276 300 328 360 53 144 99 91 105 149 187 197 186 191 196 219 226 145 105 224 342 88 138 179 168